Wetterdaten: Samstag, 27.09.2014
Datum Zeit Temperatur Luftfeuchte Luftdruck Regen Wind Richtung Richtung Taupunkt Windchill Windben
27.09.2014 00:00 9,7 C 85 % 1028,2 hPa 0,0 l/m 0,0 km/h (0 Bft) S-SO 157 7,3 C 22,8 C 0,0 km/h (0 Bft)
27.09.2014 00:10 9,4 C 85 % 1028,2 hPa 0,0 l/m 0,0 km/h (0 Bft) S-SO 157 7,0 C 22,8 C 0,0 km/h (0 Bft)
27.09.2014 00:20 9,0 C 85 % 1028,2 hPa 0,0 l/m 0,0 km/h (0 Bft) S-SO 157 6,6 C 22,8 C 0,0 km/h (0 Bft)
27.09.2014 00:30 8,9 C 85 % 1028,2 hPa 0,0 l/m 0,0 km/h (0 Bft) S-SO 157 6,5 C 22,8 C 0,0 km/h (0 Bft)
27.09.2014 00:40 8,6 C 85 % 1028,2 hPa 0,0 l/m 0,0 km/h (0 Bft) S-SO 157 6,2 C 22,8 C 0,0 km/h (0 Bft)
27.09.2014 00:50 8,5 C 85 % 1028,0 hPa 0,0 l/m 0,0 km/h (0 Bft) S-SO 157 6,1 C 22,8 C 0,0 km/h (0 Bft)
27.09.2014 01:00 8,4 C 86 % 1028,0 hPa 0,0 l/m 0,0 km/h (0 Bft) S-SO 157 6,2 C 22,8 C 0,0 km/h (0 Bft)
27.09.2014 01:10 8,8 C 86 % 1028,2 hPa 0,0 l/m 0,0 km/h (0 Bft) S-SO 157 6,6 C 22,8 C 0,0 km/h (0 Bft)
27.09.2014 01:20 8,6 C 86 % 1028,2 hPa 0,0 l/m 0,0 km/h (0 Bft) S-SO 157 6,4 C 22,8 C 0,0 km/h (0 Bft)
27.09.2014 01:30 8,3 C 87 % 1028,3 hPa 0,0 l/m 0,0 km/h (0 Bft) S-SO 157 6,3 C 22,8 C 0,0 km/h (0 Bft)
27.09.2014 01:40 8,1 C 87 % 1028,3 hPa 0,0 l/m 0,0 km/h (0 Bft) S-SO 157 6,1 C 22,8 C 0,0 km/h (0 Bft)
27.09.2014 01:50 8,2 C 87 % 1028,2 hPa 0,0 l/m 0,0 km/h (0 Bft) S-SO 157 6,2 C 22,8 C 0,0 km/h (0 Bft)
27.09.2014 02:00 8,0 C 87 % 1028,2 hPa 0,0 l/m 0,0 km/h (0 Bft) S-SO 157 6,0 C 22,8 C 0,0 km/h (0 Bft)
27.09.2014 02:10 7,9 C 88 % 1028,3 hPa 0,0 l/m 0,0 km/h (0 Bft) S-SO 157 6,0 C 22,8 C 0,0 km/h (0 Bft)
27.09.2014 02:20 8,1 C 88 % 1028,3 hPa 0,0 l/m 0,0 km/h (0 Bft) S-SO 157 6,2 C 22,8 C 0,0 km/h (0 Bft)
27.09.2014 02:30 8,6 C 88 % 1028,4 hPa 0,0 l/m 0,0 km/h (0 Bft) S-SO 157 6,7 C 22,8 C 0,0 km/h (0 Bft)
27.09.2014 02:40 9,0 C 88 % 1028,4 hPa 0,0 l/m 0,0 km/h (0 Bft) S-SO 157 7,1 C 22,8 C 0,0 km/h (0 Bft)
27.09.2014 02:48 9,2 C 88 % 1028,4 hPa 0,0 l/m 0,0 km/h (0 Bft) S-SO 157 7,3 C 22,8 C 0,0 km/h (0 Bft)
27.09.2014 02:50 9,2 C 88 % 1028,4 hPa 0,0 l/m 0,0 km/h (0 Bft) S-SO 157 7,3 C 22,8 C 0,0 km/h (0 Bft)
27.09.2014 03:00 9,3 C 88 % 1028,4 hPa 0,0 l/m 0,0 km/h (0 Bft) S-SO 157 7,4 C 22,8 C 0,0 km/h (0 Bft)
27.09.2014 03:10 9,2 C 87 % 1028,4 hPa 0,0 l/m 0,0 km/h (0 Bft) S-SO 157 7,2 C 22,8 C 0,0 km/h (0 Bft)
27.09.2014 03:20 9,2 C 87 % 1028,4 hPa 0,0 l/m 0,0 km/h (0 Bft) S-SO 157 7,2 C 22,8 C 0,0 km/h (0 Bft)
27.09.2014 03:30 9,0 C 87 % 1028,2 hPa 0,0 l/m 0,0 km/h (0 Bft) S-SO 157 7,0 C 22,8 C 0,0 km/h (0 Bft)
27.09.2014 03:40 9,1 C 87 % 1028,2 hPa 0,0 l/m 0,0 km/h (0 Bft) S-SO 157 7,1 C 22,8 C 0,0 km/h (0 Bft)
27.09.2014 03:50 9,2 C 86 % 1028,1 hPa 0,0 l/m 0,0 km/h (0 Bft) S-SO 157 7,0 C 22,8 C 0,0 km/h (0 Bft)
27.09.2014 04:00 9,1 C 86 % 1028,1 hPa 0,0 l/m 0,0 km/h (0 Bft) S-SO 157 6,9 C 22,8 C 0,0 km/h (0 Bft)
27.09.2014 04:10 9,1 C 86 % 1028,4 hPa 0,0 l/m 0,0 km/h (0 Bft) S-SO 157 6,9 C 22,8 C 0,0 km/h (0 Bft)
27.09.2014 04:20 9,2 C 86 % 1028,4 hPa 0,0 l/m 0,0 km/h (0 Bft) S-SO 157 7,0 C 22,8 C 0,0 km/h (0 Bft)
27.09.2014 04:30 9,2 C 87 % 1028,2 hPa 0,0 l/m 0,0 km/h (0 Bft) S-SO 157 7,2 C 22,8 C 0,0 km/h (0 Bft)
27.09.2014 04:40 9,1 C 87 % 1028,2 hPa 0,0 l/m 0,0 km/h (0 Bft) S-SO 157 7,1 C 22,8 C 0,0 km/h (0 Bft)
27.09.2014 04:50 9,1 C 87 % 1028,1 hPa 0,0 l/m 0,0 km/h (0 Bft) S-SO 157 7,1 C 22,8 C 0,0 km/h (0 Bft)
27.09.2014 05:00 9,1 C 87 % 1028,1 hPa 0,0 l/m 0,0 km/h (0 Bft) S-SO 157 7,1 C 22,8 C 0,0 km/h (0 Bft)
27.09.2014 05:10 8,9 C 87 % 1028,2 hPa 0,0 l/m 0,0 km/h (0 Bft) S-SO 157 6,9 C 22,8 C 0,0 km/h (0 Bft)
27.09.2014 05:20 9,0 C 87 % 1028,2 hPa 0,0 l/m 0,0 km/h (0 Bft) S-SO 157 7,0 C 22,8 C 0,0 km/h (0 Bft)
27.09.2014 05:30 8,9 C 87 % 1028,4 hPa 0,0 l/m 0,0 km/h (0 Bft) S-SO 157 6,9 C 22,8 C 0,0 km/h (0 Bft)
27.09.2014 05:40 8,9 C 87 % 1028,4 hPa 0,0 l/m 0,0 km/h (0 Bft) S-SO 157 6,9 C 22,8 C 0,0 km/h (0 Bft)
27.09.2014 05:48 8,8 C 87 % 1028,2 hPa 0,0 l/m 0,0 km/h (0 Bft) S-SO 157 6,8 C 22,8 C 0,0 km/h (0 Bft)
27.09.2014 05:50 8,8 C 87 % 1028,2 hPa 0,0 l/m 0,0 km/h (0 Bft) S-SO 157 6,8 C 22,8 C 0,0 km/h (0 Bft)
27.09.2014 06:00 8,8 C 88 % 1028,2 hPa 0,0 l/m 0,0 km/h (0 Bft) S-SO 157 6,9 C 22,8 C 0,0 km/h (0 Bft)
27.09.2014 06:10 8,6 C 88 % 1028,3 hPa 0,0 l/m 0,0 km/h (0 Bft) S-SO 157 6,7 C 22,8 C 0,0 km/h (0 Bft)
27.09.2014 06:20 8,5 C 88 % 1028,3 hPa 0,0 l/m 0,0 km/h (0 Bft) S-SO 157 6,6 C 22,8 C 0,0 km/h (0 Bft)
27.09.2014 06:30 8,4 C 88 % 1028,1 hPa 0,0 l/m 0,0 km/h (0 Bft) S-SO 157 6,5 C 22,8 C 0,0 km/h (0 Bft)
27.09.2014 06:40 8,4 C 88 % 1028,1 hPa 0,0 l/m 0,0 km/h (0 Bft) S-SO 157 6,5 C 22,8 C 0,0 km/h (0 Bft)
27.09.2014 06:50 8,4 C 88 % 1028,1 hPa 0,0 l/m 0,0 km/h (0 Bft) S-SO 157 6,5 C 22,8 C 0,0 km/h (0 Bft)
27.09.2014 07:00 8,5 C 89 % 1028,1 hPa 0,0 l/m 0,0 km/h (0 Bft) S-SO 157 6,8 C 22,8 C 0,0 km/h (0 Bft)
27.09.2014 07:10 8,5 C 89 % 1028,3 hPa 0,0 l/m 0,0 km/h (0 Bft) S-SO 157 6,8 C 22,8 C 0,0 km/h (0 Bft)
27.09.2014 07:20 8,7 C 89 % 1028,3 hPa 0,0 l/m 0,0 km/h (0 Bft) S-SO 157 7,0 C 22,8 C 0,0 km/h (0 Bft)
27.09.2014 07:30 8,9 C 89 % 1028,2 hPa 0,0 l/m 0,0 km/h (0 Bft) S-SO 157 7,2 C 22,8 C 0,0 km/h (0 Bft)
27.09.2014 07:40 8,9 C 89 % 1028,2 hPa 0,0 l/m 0,0 km/h (0 Bft) S-SO 157 7,2 C 22,8 C 0,0 km/h (0 Bft)
27.09.2014 07:50 9,0 C 88 % 1028,5 hPa 0,0 l/m 0,0 km/h (0 Bft) S-SO 157 7,1 C 22,8 C 0,0 km/h (0 Bft)
27.09.2014 08:00 9,2 C 88 % 1028,5 hPa 0,0 l/m 0,0 km/h (0 Bft) S-SO 157 7,3 C 22,8 C 0,0 km/h (0 Bft)
27.09.2014 08:10 9,4 C 88 % 1028,4 hPa 0,0 l/m 0,0 km/h (0 Bft) S-SO 157 7,5 C 22,8 C 0,0 km/h (0 Bft)
27.09.2014 08:20 9,4 C 88 % 1028,4 hPa 0,0 l/m 0,0 km/h (0 Bft) S-SO 157 7,5 C 22,8 C 0,0 km/h (0 Bft)
27.09.2014 08:30 9,4 C 88 % 1028,4 hPa 0,0 l/m 0,0 km/h (0 Bft) S-SO 157 7,5 C 22,8 C 0,0 km/h (0 Bft)
27.09.2014 08:38 8,9 C 88 % 1028,4 hPa 0,0 l/m 0,0 km/h (0 Bft) S-SO 157 7,0 C 22,8 C 0,0 km/h (0 Bft)
27.09.2014 08:40 8,9 C 88 % 1028,4 hPa 0,0 l/m 0,0 km/h (0 Bft) S-SO 157 7,0 C 22,8 C 0,0 km/h (0 Bft)
27.09.2014 08:50 8,6 C 88 % 1028,6 hPa 0,0 l/m 0,0 km/h (0 Bft) S-SO 157 6,7 C 22,8 C 0,0 km/h (0 Bft)
27.09.2014 09:00 8,8 C 88 % 1028,6 hPa 0,0 l/m 0,0 km/h (0 Bft) S-SO 157 6,9 C 22,8 C 0,0 km/h (0 Bft)
27.09.2014 09:10 8,9 C 88 % 1028,8 hPa 0,0 l/m 0,0 km/h (0 Bft) S-SO 157 7,0 C 22,8 C 0,0 km/h (0 Bft)
27.09.2014 09:20 9,4 C 88 % 1028,8 hPa 0,0 l/m 0,0 km/h (0 Bft) S-SO 157 7,5 C 22,8 C 0,0 km/h (0 Bft)
27.09.2014 09:30 10,3 C 88 % 1028,9 hPa 0,0 l/m 0,0 km/h (0 Bft) S-SO 157 8,4 C 22,8 C 0,0 km/h (0 Bft)
27.09.2014 09:40 13,7 C 85 % 1028,9 hPa 0,0 l/m 0,0 km/h (0 Bft) S-SO 157 11,2 C 22,8 C 0,0 km/h (0 Bft)
27.09.2014 09:50 13,9 C 76 % 1029,1 hPa 0,0 l/m 0,0 km/h (0 Bft) S-SO 157 9,7 C 22,8 C 0,0 km/h (0 Bft)
27.09.2014 10:00 15,2 C 69 % 1029,1 hPa 0,0 l/m 0,0 km/h (0 Bft) S-SO 157 9,6 C 22,8 C 0,0 km/h (0 Bft)
27.09.2014 10:10 16,0 C 60 % 1029,4 hPa 0,0 l/m 0,0 km/h (0 Bft) S-SO 157 8,2 C 22,8 C 0,0 km/h (0 Bft)
27.09.2014 10:20 17,2 C 57 % 1029,4 hPa 0,0 l/m 0,0 km/h (0 Bft) S-SO 157 8,6 C 22,8 C 0,0 km/h (0 Bft)
27.09.2014 10:30 17,4 C 54 % 1029,3 hPa 0,0 l/m 0,0 km/h (0 Bft) S-SO 157 8,0 C 22,8 C 0,0 km/h (0 Bft)
27.09.2014 10:40 17,8 C 52 % 1029,3 hPa 0,0 l/m 0,0 km/h (0 Bft) S-SO 157 7,8 C 22,8 C 0,0 km/h (0 Bft)
27.09.2014 10:50 17,8 C 51 % 1029,6 hPa 0,0 l/m 0,0 km/h (0 Bft) S-SO 157 7,5 C 22,8 C 0,0 km/h (0 Bft)
27.09.2014 11:00 17,9 C 51 % 1029,6 hPa 0,0 l/m 0,0 km/h (0 Bft) S-SO 157 7,6 C 22,8 C 0,0 km/h (0 Bft)
27.09.2014 11:10 18,5 C 49 % 1029,6 hPa 0,0 l/m 0,0 km/h (0 Bft) S-SO 157 7,6 C 22,8 C 0,0 km/h (0 Bft)
27.09.2014 11:20 19,3 C 46 % 1029,6 hPa 0,0 l/m 0,0 km/h (0 Bft) S-SO 157 7,4 C 22,8 C 0,0 km/h (0 Bft)
27.09.2014 11:30 19,1 C 45 % 1029,8 hPa 0,0 l/m 0,0 km/h (0 Bft) S-SO 157 6,9 C 22,8 C 0,0 km/h (0 Bft)
27.09.2014 11:38 19,5 C 44 % 1029,8 hPa 0,0 l/m 0,0 km/h (0 Bft) S-SO 157 6,9 C 22,8 C 0,0 km/h (0 Bft)
27.09.2014 11:40 19,5 C 44 % 1029,8 hPa 0,0 l/m 0,0 km/h (0 Bft) S-SO 157 6,9 C 22,8 C 0,0 km/h (0 Bft)
27.09.2014 11:50 19,8 C 43 % 1029,7 hPa 0,0 l/m 0,0 km/h (0 Bft) S-SO 157 6,9 C 22,8 C 0,0 km/h (0 Bft)
27.09.2014 12:00 20,4 C 41 % 1029,7 hPa 0,0 l/m 0,0 km/h (0 Bft) S-SO 157 6,7 C 22,8 C 0,0 km/h (0 Bft)
27.09.2014 12:10 19,7 C 43 % 1029,8 hPa 0,0 l/m 0,0 km/h (0 Bft) S-SO 157 6,8 C 22,8 C 0,0 km/h (0 Bft)
27.09.2014 12:20 21,0 C 42 % 1029,8 hPa 0,0 l/m 0,0 km/h (0 Bft) S-SO 157 7,6 C 22,8 C 0,0 km/h (0 Bft)
27.09.2014 12:30 20,0 C 44 % 1029,8 hPa 0,0 l/m 0,0 km/h (0 Bft) S-SO 157 7,4 C 22,8 C 0,0 km/h (0 Bft)
27.09.2014 12:40 20,1 C 46 % 1029,8 hPa 0,0 l/m 0,0 km/h (0 Bft) S-SO 157 8,1 C 22,8 C 0,0 km/h (0 Bft)
27.09.2014 12:50 20,0 C 47 % 1030,0 hPa 0,0 l/m 0,0 km/h (0 Bft) S-SO 157 8,3 C 22,8 C 0,0 km/h (0 Bft)
27.09.2014 13:00 20,0 C 48 % 1030,0 hPa 0,0 l/m 0,0 km/h (0 Bft) S-SO 157 8,7 C 22,8 C 0,0 km/h (0 Bft)
27.09.2014 13:10 20,3 C 48 % 1030,0 hPa 0,0 l/m 0,0 km/h (0 Bft) S-SO 157 8,9 C 22,8 C 0,0 km/h (0 Bft)
27.09.2014 13:20 20,9 C 49 % 1030,0 hPa 0,0 l/m 0,0 km/h (0 Bft) S-SO 157 9,8 C 22,8 C 0,0 km/h (0 Bft)
27.09.2014 13:30 20,1 C 48 % 1029,9 hPa 0,0 l/m 0,0 km/h (0 Bft) S-SO 157 8,7 C 22,8 C 0,0 km/h (0 Bft)
27.09.2014 13:40 19,8 C 50 % 1029,9 hPa 0,0 l/m 0,0 km/h (0 Bft) S-SO 157 9,1 C 22,8 C 0,0 km/h (0 Bft)
27.09.2014 13:50 20,5 C 49 % 1029,9 hPa 0,0 l/m 0,0 km/h (0 Bft) S-SO 157 9,4 C 22,8 C 0,0 km/h (0 Bft)
27.09.2014 14:00 19,8 C 51 % 1029,9 hPa 0,0 l/m 0,0 km/h (0 Bft) S-SO 157 9,4 C 22,8 C 0,0 km/h (0 Bft)
27.09.2014 14:10 19,7 C 50 % 1029,5 hPa 0,0 l/m 0,0 km/h (0 Bft) S-SO 157 9,0 C 22,8 C 0,0 km/h (0 Bft)
27.09.2014 14:20 19,6 C 51 % 1029,5 hPa 0,0 l/m 0,0 km/h (0 Bft) S-SO 157 9,2 C 22,8 C 0,0 km/h (0 Bft)
27.09.2014 14:30 19,7 C 51 % 1029,6 hPa 0,0 l/m 0,0 km/h (0 Bft) S-SO 157 9,3 C 22,8 C 0,0 km/h (0 Bft)
27.09.2014 14:38 20,5 C 49 % 1029,6 hPa 0,0 l/m 0,0 km/h (0 Bft) S-SO 157 9,4 C 22,8 C 0,0 km/h (0 Bft)
27.09.2014 14:40 20,5 C 49 % 1029,6 hPa 0,0 l/m 0,0 km/h (0 Bft) S-SO 157 9,4 C 22,8 C 0,0 km/h (0 Bft)
27.09.2014 14:50 20,2 C 50 % 1029,6 hPa 0,0 l/m 0,0 km/h (0 Bft) S-SO 157 9,4 C 22,8 C 0,0 km/h (0 Bft)
27.09.2014 15:00 20,8 C 49 % 1029,6 hPa 0,0 l/m 0,0 km/h (0 Bft) S-SO 157 9,7 C 22,8 C 0,0 km/h (0 Bft)
27.09.2014 15:10 20,2 C 49 % 1029,6 hPa 0,0 l/m 0,0 km/h (0 Bft) S-SO 157 9,1 C 22,8 C 0,0 km/h (0 Bft)
27.09.2014 15:20 20,5 C 49 % 1029,6 hPa 0,0 l/m 0,0 km/h (0 Bft) S-SO 157 9,4 C 22,8 C 0,0 km/h (0 Bft)
27.09.2014 15:30 19,9 C 51 % 1029,5 hPa 0,0 l/m 0,0 km/h (0 Bft) S-SO 157 9,5 C 22,8 C 0,0 km/h (0 Bft)
27.09.2014 15:40 20,8 C 49 % 1029,5 hPa 0,0 l/m 0,0 km/h (0 Bft) S-SO 157 9,7 C 22,8 C 0,0 km/h (0 Bft)
27.09.2014 15:50 20,7 C 49 % 1029,4 hPa 0,0 l/m 0,0 km/h (0 Bft) S-SO 157 9,6 C 22,8 C 0,0 km/h (0 Bft)
27.09.2014 16:00 20,1 C 54 % 1029,4 hPa 0,0 l/m 0,0 km/h (0 Bft) S-SO 157 10,5 C 22,8 C 0,0 km/h (0 Bft)
27.09.2014 16:10 19,5 C 54 % 1029,1 hPa 0,0 l/m 0,0 km/h (0 Bft) S-SO 157 9,9 C 22,8 C 0,0 km/h (0 Bft)
27.09.2014 16:20 20,1 C 54 % 1029,1 hPa 0,0 l/m 0,0 km/h (0 Bft) S-SO 157 10,5 C 22,8 C 0,0 km/h (0 Bft)
27.09.2014 16:30 19,9 C 53 % 1029,1 hPa 0,0 l/m 0,0 km/h (0 Bft) S-SO 157 10,0 C 22,8 C 0,0 km/h (0 Bft)
27.09.2014 16:40 19,1 C 56 % 1029,1 hPa 0,0 l/m 0,0 km/h (0 Bft) S-SO 157 10,1 C 22,8 C 0,0 km/h (0 Bft)
27.09.2014 16:50 18,7 C 58 % 1028,9 hPa 0,0 l/m 0,0 km/h (0 Bft) S-SO 157 10,3 C 22,8 C 0,0 km/h (0 Bft)
27.09.2014 17:00 18,4 C 60 % 1028,9 hPa 0,0 l/m 0,0 km/h (0 Bft) S-SO 157 10,5 C 22,8 C 0,0 km/h (0 Bft)
27.09.2014 17:10 17,8 C 65 % 1028,9 hPa 0,0 l/m 0,0 km/h (0 Bft) S-SO 157 11,1 C 22,8 C 0,0 km/h (0 Bft)
27.09.2014 17:20 17,4 C 66 % 1028,9 hPa 0,0 l/m 0,0 km/h (0 Bft) S-SO 157 11,0 C 22,8 C 0,0 km/h (0 Bft)
27.09.2014 17:30 16,8 C 70 % 1028,9 hPa 0,0 l/m 0,0 km/h (0 Bft) S-SO 157 11,3 C 22,8 C 0,0 km/h (0 Bft)
27.09.2014 17:38 16,6 C 71 % 1028,9 hPa 0,0 l/m 0,0 km/h (0 Bft) S-SO 157 11,3 C 22,8 C 0,0 km/h (0 Bft)
27.09.2014 17:40 16,6 C 71 % 1028,9 hPa 0,0 l/m 0,0 km/h (0 Bft) S-SO 157 11,3 C 22,8 C 0,0 km/h (0 Bft)
27.09.2014 17:50 16,4 C 71 % 1028,8 hPa 0,0 l/m 0,0 km/h (0 Bft) S-SO 157 11,1 C 22,8 C 0,0 km/h (0 Bft)
27.09.2014 18:00 16,3 C 73 % 1028,8 hPa 0,0 l/m 0,0 km/h (0 Bft) S-SO 157 11,4 C 22,8 C 0,0 km/h (0 Bft)
27.09.2014 18:10 16,3 C 72 % 1028,6 hPa 0,0 l/m 0,0 km/h (0 Bft) S-SO 157 11,2 C 22,8 C 0,0 km/h (0 Bft)
27.09.2014 18:20 16,3 C 73 % 1028,6 hPa 0,0 l/m 0,0 km/h (0 Bft) S-SO 157 11,4 C 22,8 C 0,0 km/h (0 Bft)
27.09.2014 18:30 15,9 C 75 % 1028,6 hPa 0,0 l/m 0,0 km/h (0 Bft) S-SO 157 11,5 C 22,8 C 0,0 km/h (0 Bft)
27.09.2014 18:40 15,4 C 76 % 1028,6 hPa 0,0 l/m 0,0 km/h (0 Bft) S-SO 157 11,2 C 22,8 C 0,0 km/h (0 Bft)
27.09.2014 18:50 14,9 C 78 % 1028,6 hPa 0,0 l/m 0,0 km/h (0 Bft) S-SO 157 11,1 C 22,8 C 0,0 km/h (0 Bft)
27.09.2014 19:00 14,5 C 79 % 1028,6 hPa 0,0 l/m 0,0 km/h (0 Bft) S-SO 157 10,9 C 22,8 C 0,0 km/h (0 Bft)
27.09.2014 19:10 14,1 C 79 % 1028,9 hPa 0,0 l/m 0,0 km/h (0 Bft) S-SO 157 10,5 C 22,8 C 0,0 km/h (0 Bft)
27.09.2014 19:20 13,9 C 81 % 1028,9 hPa 0,0 l/m 0,0 km/h (0 Bft) S-SO 157 10,7 C 22,8 C 0,0 km/h (0 Bft)
27.09.2014 19:30 13,9 C 84 % 1028,8 hPa 0,0 l/m 0,0 km/h (0 Bft) S-SO 157 11,2 C 22,8 C 0,0 km/h (0 Bft)
27.09.2014 19:40 13,9 C 84 % 1028,8 hPa 0,0 l/m 0,0 km/h (0 Bft) S-SO 157 11,2 C 22,8 C 0,0 km/h (0 Bft)
27.09.2014 19:50 13,8 C 83 % 1028,7 hPa 0,0 l/m 0,0 km/h (0 Bft) S-SO 157 11,0 C 22,8 C 0,0 km/h (0 Bft)
27.09.2014 20:00 13,8 C 84 % 1028,7 hPa 0,0 l/m 0,0 km/h (0 Bft) S-SO 157 11,1 C 22,8 C 0,0 km/h (0 Bft)
27.09.2014 20:10 13,5 C 84 % 1028,8 hPa 0,0 l/m 0,0 km/h (0 Bft) S-SO 157 10,8 C 22,8 C 0,0 km/h (0 Bft)
27.09.2014 20:20 13,7 C 85 % 1028,8 hPa 0,0 l/m 0,0 km/h (0 Bft) S-SO 157 11,2 C 22,8 C 0,0 km/h (0 Bft)
27.09.2014 20:30 13,6 C 85 % 1028,9 hPa 0,0 l/m 0,0 km/h (0 Bft) S-SO 157 11,1 C 22,8 C 0,0 km/h (0 Bft)
27.09.2014 20:38 13,3 C 85 % 1028,9 hPa 0,0 l/m 0,0 km/h (0 Bft) S-SO 157 10,8 C 22,8 C 0,0 km/h (0 Bft)
27.09.2014 20:40 13,3 C 85 % 1028,9 hPa 0,0 l/m 0,0 km/h (0 Bft) S-SO 157 10,8 C 22,8 C 0,0 km/h (0 Bft)
27.09.2014 20:50 13,2 C 86 % 1028,9 hPa 0,0 l/m 0,0 km/h (0 Bft) S-SO 157 10,9 C 22,8 C 0,0 km/h (0 Bft)
27.09.2014 21:00 13,1 C 86 % 1028,9 hPa 0,0 l/m 0,0 km/h (0 Bft) S-SO 157 10,8 C 22,8 C 0,0 km/h (0 Bft)
27.09.2014 21:10 13,1 C 86 % 1029,1 hPa 0,0 l/m 0,0 km/h (0 Bft) S-SO 157 10,8 C 22,8 C 0,0 km/h (0 Bft)
27.09.2014 21:20 13,1 C 86 % 1029,1 hPa 0,0 l/m 0,0 km/h (0 Bft) S-SO 157 10,8 C 22,8 C 0,0 km/h (0 Bft)
27.09.2014 21:30 13,1 C 86 % 1029,0 hPa 0,0 l/m 0,0 km/h (0 Bft) S-SO 157 10,8 C 22,8 C 0,0 km/h (0 Bft)
27.09.2014 21:40 13,0 C 86 % 1029,0 hPa 0,0 l/m 0,0 km/h (0 Bft) S-SO 157 10,7 C 22,8 C 0,0 km/h (0 Bft)
27.09.2014 21:50 13,0 C 86 % 1029,1 hPa 0,0 l/m 0,0 km/h (0 Bft) S-SO 157 10,7 C 22,8 C 0,0 km/h (0 Bft)
27.09.2014 22:00 12,9 C 87 % 1029,1 hPa 0,0 l/m 0,0 km/h (0 Bft) S-SO 157 10,8 C 22,8 C 0,0 km/h (0 Bft)
27.09.2014 22:10 12,8 C 87 % 1029,2 hPa 0,0 l/m 0,0 km/h (0 Bft) S-SO 157 10,7 C 22,8 C 0,0 km/h (0 Bft)
27.09.2014 22:20 12,7 C 88 % 1029,2 hPa 0,0 l/m 0,0 km/h (0 Bft) S-SO 157 10,8 C 22,8 C 0,0 km/h (0 Bft)
27.09.2014 22:30 12,4 C 87 % 1029,2 hPa 0,0 l/m 0,0 km/h (0 Bft) S-SO 157 10,3 C 22,8 C 0,0 km/h (0 Bft)
27.09.2014 22:40 12,3 C 88 % 1029,2 hPa 0,0 l/m 0,0 km/h (0 Bft) S-SO 157 10,4 C 22,8 C 0,0 km/h (0 Bft)
27.09.2014 22:50 12,3 C 88 % 1029,3 hPa 0,0 l/m 0,0 km/h (0 Bft) S-SO 157 10,4 C 22,8 C 0,0 km/h (0 Bft)
27.09.2014 23:00 12,3 C 88 % 1029,3 hPa 0,0 l/m 0,0 km/h (0 Bft) S-SO 157 10,4 C 22,8 C 0,0 km/h (0 Bft)
27.09.2014 23:10 12,3 C 88 % 1029,2 hPa 0,0 l/m 0,0 km/h (0 Bft) S-SO 157 10,4 C 22,8 C 0,0 km/h (0 Bft)
27.09.2014 23:20 11,5 C 89 % 1029,2 hPa 0,0 l/m 0,0 km/h (0 Bft) S-SO 157 9,8 C 22,8 C 0,0 km/h (0 Bft)
27.09.2014 23:30 11,4 C 89 % 1029,0 hPa 0,0 l/m 0,0 km/h (0 Bft) S-SO 157 9,7 C 22,8 C 0,0 km/h (0 Bft)
27.09.2014 23:38 11,4 C 89 % 1029,0 hPa 0,0 l/m 0,0 km/h (0 Bft) S-SO 157 9,7 C 22,8 C 0,0 km/h (0 Bft)
27.09.2014 23:40 11,4 C 89 % 1029,0 hPa 0,0 l/m 0,0 km/h (0 Bft) S-SO 157 9,7 C 22,8 C 0,0 km/h (0 Bft)
27.09.2014 23:50 11,2 C 89 % 1028,9 hPa 0,0 l/m 0,0 km/h (0 Bft) S-SO 157 9,5 C 22,8 C 0,0 km/h (0 Bft)
_ Min-Zeit 02:10 12:00 01:00 - 23:50 - - 02:00 23:50 23:50
Minimum _ 7,9 C 41 % 1028,0 hPa - 0,0 km/h (0 Bft) - - 6,0 C 22,8 C 0,0 km/h (0 Bft)
_ Max-Zeit 12:20 23:50 13:20 23:50 23:50 - - 18:30 23:50 23:50
Maximum _ 21,0 C 89 % 1030,0 hPa 0,0 l/m 0,0 km/h
S-SO (0 Bft)
- - 11,5 C 22,8 C 0,0 km/h
S-SO (0 Bft)
Durchschnitt _ 13,5 C 75 % 1028,9 hPa #0,0 l/m 0,0 km/h (0 Bft) - - - 8,6 C 22,8 C 0,0 km/h (0 Bft)